QPF
0.00 0.01 0.01 0.02 0.04 0.04 0.04 0.05 0.04 0.03 0.02 0.02 0.02 0.02 0.02 0.02 0.04 0.06 0.05 0.04 0.05 0.07 0.12 0.11 0.10 0.09 0.07 0.06 0.06 0.06 0.06 0.07 0.06 0.04 0.04 0.03 0.03 0.03 0.02 0.04 0.04 0.04 0.05 0.04 0.03 0.05 0.05 0.04 0.04
0.01 0.01 0.02 0.04 0.03 0.02 0.04 0.04 0.02 0.02 0.02 0.01 0.01 0.01 0.01 0.02 0.02 0.04 0.04 0.04 0.05 0.07 0.11 0.11 0.08 0.06 0.05 0.04 0.04 0.04 0.05 0.07 0.06 0.04 0.03 0.03 0.03 0.03 0.03 0.03 0.04 0.04 0.05 0.04 0.04 0.05 0.04 0.04 0.04
0.01 0.02 0.03 0.04 0.03 0.03 0.04 0.03 0.02 0.02 0.01 0.01 0.01 0.01 0.02 0.04 0.04 0.05 0.05 0.05 0.04 0.05 0.07 0.10 0.10 0.07 0.06 0.06 0.05 0.04 0.06 0.06 0.05 0.04 0.03 0.03 0.03 0.04 0.04 0.04 0.04 0.04 0.04 0.04 0.05 0.05 0.04 0.04 0.04
0.01 0.02 0.03 0.04 0.03 0.02 0.02 0.01 0.01 0.01 0.00 0.00 0.00 0.03 0.04 0.03 0.03 0.03 0.03 0.03 0.03 0.04 0.04 0.07 0.08 0.08 0.08 0.07 0.06 0.06 0.06 0.04 0.04 0.05 0.04 0.03 0.02 0.03 0.03 0.03 0.04 0.05 0.05 0.04 0.05 0.04 0.06 0.05 0.05
0.02 0.02 0.02 0.02 0.02 0.02 0.01 0.00 0.01 0.00 0.00 0.00 0.01 0.02 0.04 0.04 0.02 0.03 0.03 0.03 0.02 0.03 0.04 0.06 0.07 0.09 0.09 0.08 0.08 0.07 0.06 0.06 0.06 0.06 0.05 0.05 0.04 0.04 0.03 0.03 0.04 0.05 0.05 0.04 0.04 0.05 0.06 0.07 0.06
0.03 0.03 0.02 0.01 0.01 0.01 0.01 0.00 0.00 0.00 0.00 0.00 0.00 0.01 0.05 0.05 0.03 0.03 0.03 0.04 0.04 0.04 0.04 0.06 0.06 0.06 0.06 0.06 0.06 0.06 0.06 0.07 0.06 0.06 0.04 0.04 0.05 0.04 0.03 0.03 0.03 0.06 0.08 0.06 0.05 0.06 0.07 0.07 0.06
0.03 0.03 0.02 0.01 0.01 0.01 0.01 0.01 0.01 0.00 0.00 0.00 0.00 0.01 0.04 0.04 0.04 0.05 0.07 0.07 0.05 0.04 0.03 0.04 0.06 0.05 0.06 0.07 0.05 0.04 0.04 0.04 0.04 0.04 0.04 0.04 0.04 0.04 0.05 0.04 0.04 0.04 0.05 0.05 0.06 0.08 0.09 0.10 0.09
0.03 0.03 0.01 0.01 0.01 0.02 0.01 0.01 0.00 0.00 0.01 0.00 0.00 0.01 0.03 0.03 0.03 0.04 0.05 0.05 0.04 0.04 0.04 0.04 0.05 0.05 0.06 0.05 0.05 0.03 0.03 0.03 0.03 0.05 0.07 0.07 0.05 0.05 0.05 0.06 0.04 0.04 0.04 0.05 0.07 0.08 0.08 0.10 0.11
0.01 0.03 0.02 0.01 0.01 0.03 0.01 0.01 0.00 0.00 0.00 0.01 0.02 0.03 0.04 0.03 0.03 0.03 0.03 0.03 0.04 0.04 0.04 0.04 0.05 0.06 0.05 0.03 0.03 0.02 0.02 0.03 0.05 0.05 0.07 0.11 0.04 0.03 0.05 0.07 0.06 0.04 0.05 0.06 0.07 0.07 0.06 0.07 0.08
0.02 0.01 0.01 0.00 0.00 0.01 0.01 0.01 0.00 0.00 0.01 0.01 0.01 0.02 0.03 0.03 0.03 0.03 0.04 0.04 0.05 0.06 0.06 0.06 0.05 0.04 0.03 0.02 0.01 0.01 0.01 0.02 0.03 0.04 0.04 0.04 0.02 0.01 0.02 0.05 0.07 0.07 0.08 0.08 0.07 0.07 0.06 0.07 0.06
0.02 0.01 0.00 0.00 0.00 0.01 0.01 0.00 0.00 0.00 0.01 0.01 0.01 0.01 0.01 0.01 0.02 0.03 0.05 0.05 0.05 0.04 0.04 0.04 0.03 0.02 0.01 0.01 0.01 0.00 0.00 0.01 0.03 0.02 0.03 0.02 0.02 0.02 0.03 0.03 0.06 0.08 0.10 0.09 0.08 0.08 0.08 0.09 0.07
0.01 0.01 0.00 0.01 0.01 0.01 0.01 0.00 0.00 0.01 0.00 0.00 0.00 0.01 0.00 0.00 0.01 0.01 0.02 0.02 0.02 0.02 0.02 0.02 0.01 0.01 0.01 0.01 0.01 0.01 0.00 0.01 0.02 0.02 0.02 0.02 0.02 0.02 0.03 0.02 0.04 0.04 0.05 0.06 0.07 0.07 0.07 0.07 0.08
0.00 0.00 0.01 0.01 0.01 0.01 0.00 0.00 0.00 0.00 0.00 0.00 0.01 0.01 0.00 0.00 0.00 0.01 0.02 0.02 0.02 0.02 0.01 0.01 0.01 0.01 0.01 0.01 0.01 0.01 0.00 0.00 0.00 0.01 0.01 0.02 0.02 0.02 0.03 0.03 0.03 0.03 0.03 0.04 0.05 0.06 0.06 0.05 0.06
0.00 0.01 0.01 0.01 0.01 0.01 0.00 0.00 0.00 0.01 0.00 0.00 0.01 0.02 0.02 0.01 0.01 0.01 0.01 0.01 0.01 0.01 0.01 0.01 0.01 0.01 0.01 0.01 0.01 0.01 0.00 0.00 0.00 0.00 0.00 0.01 0.01 0.02 0.02 0.02 0.03 0.03 0.03 0.02 0.03 0.04 0.05 0.05 0.07
0.01 0.01 0.01 0.00 0.01 0.01 0.01 0.01 0.01 0.00 0.00 0.01 0.01 0.02 0.02 0.01 0.01 0.01 0.01 0.01 0.01 0.01 0.00 0.01 0.01 0.01 0.01 0.01 0.02 0.01 0.01 0.01 0.01 0.00 0.00 0.01 0.01 0.01 0.02 0.02 0.02 0.03 0.03 0.03 0.04 0.05 0.07 0.07 0.07
0.01 0.01 0.01 0.00 0.01 0.01 0.01 0.01 0.01 0.00 0.01 0.01 0.01 0.01 0.01 0.01 0.01 0.01 0.00 0.01 0.01 0.01 0.01 0.01 0.01 0.01 0.02 0.02 0.02 0.02 0.01 0.01 0.01 0.01 0.01 0.01 0.01 0.02 0.03 0.04 0.05 0.07 0.09 0.09 0.09 0.09 0.10 0.08 0.08
0.01 0.01 0.01 0.00 0.01 0.01 0.01 0.01 0.00 0.00 0.01 0.01 0.00 0.00 0.00 0.00 0.00 0.00 0.00 0.00 0.00 0.01 0.01 0.01 0.02 0.03 0.03 0.02 0.02 0.02 0.01 0.01 0.01 0.01 0.02 0.02 0.03 0.03 0.05 0.06 0.08 0.10 0.12 0.12 0.10 0.10 0.08 0.07 0.08
0.01 0.01 0.01 0.01 0.01 0.01 0.01 0.01 0.01 0.00 0.01 0.01 0.00 0.00 0.00 0.00 0.00 0.00 0.00 0.00 0.00 0.01 0.01 0.02 0.03 0.03 0.04 0.05 0.03 0.02 0.01 0.01 0.01 0.02 0.02 0.02 0.03 0.04 0.03 0.03 0.04 0.06 0.08 0.08 0.07 0.07 0.05 0.05 0.05
0.00 0.00 0.00 0.00 0.00 0.01 0.00 0.00 0.00 0.01 0.01 0.00 0.00 0.00 0.00 0.00 0.00 0.00 0.00 0.00 0.01 0.01 0.01 0.02 0.03 0.04 0.05 0.05 0.02 0.01 0.02 0.02 0.02 0.02 0.02 0.02 0.02 0.03 0.03 0.04 0.04 0.04 0.05 0.06 0.06 0.04 0.03 0.04 0.05
0.00 0.00 0.00 0.00 0.00 0.00 0.01 0.01 0.01 0.01 0.01 0.00 0.00 0.00 0.00 0.00 0.00 0.00 0.00 0.01 0.01 0.01 0.01 0.02 0.03 0.03 0.04 0.04 0.03 0.03 0.04 0.04 0.05 0.04 0.04 0.03 0.03 0.04 0.04 0.04 0.04 0.05 0.05 0.05 0.06 0.05 0.04 0.04 0.06
0.00 0.00 0.00 0.00 0.00 0.01 0.01 0.01 0.01 0.01 0.01 0.00 0.00 0.00 0.00 0.00 0.00 0.01 0.01 0.01 0.01 0.01 0.01 0.02 0.02 0.03 0.04 0.03 0.03 0.03 0.04 0.06 0.09 0.07 0.05 0.05 0.05 0.06 0.08 0.07 0.06 0.05 0.05 0.05 0.06 0.06 0.05 0.05 0.06
0.00 0.00 0.00 0.00 0.00 0.00 0.01 0.01 0.01 0.01 0.01 0.00 0.00 0.00 0.00 0.00 0.00 0.00 0.01 0.01 0.01 0.01 0.02 0.02 0.03 0.04 0.04 0.03 0.02 0.02 0.03 0.05 0.08 0.07 0.06 0.06 0.07 0.08 0.09 0.11 0.10 0.07 0.07 0.07 0.08 0.07 0.07 0.08 0.06
0.00 0.00 0.00 0.00 0.00 0.00 0.00 0.00 0.00 0.01 0.00 0.00 0.00 0.00 0.00 0.00 0.00 0.00 0.01 0.01 0.02 0.02 0.03 0.03 0.04 0.04 0.04 0.05 0.04 0.03 0.03 0.04 0.04 0.04 0.04 0.06 0.09 0.09 0.08 0.10 0.11 0.11 0.09 0.09 0.11 0.13 0.13 0.12 0.09
0.00 0.00 0.00 0.00 0.00 0.00 0.00 0.00 0.00 0.00 0.00 0.00 0.00 0.00 0.00 0.00 0.00 0.01 0.01 0.01 0.02 0.02 0.03 0.04 0.05 0.06 0.06 0.07 0.07 0.06 0.04 0.05 0.05 0.05 0.05 0.06 0.07 0.09 0.08 0.08 0.09 0.10 0.10 0.11 0.14 0.16 0.15 0.12 0.10
0.00 0.00 0.00 0.00 0.00 0.00 0.00 0.00 0.00 0.00 0.00 0.00 0.00 0.00 0.00 0.00 0.00 0.01 0.01 0.01 0.02 0.03 0.04 0.04 0.03 0.04 0.05 0.07 0.09 0.08 0.07 0.06 0.05 0.05 0.06 0.07 0.08 0.07 0.05 0.05 0.05 0.05 0.07 0.08 0.11 0.12 0.09 0.08 0.08
0.00 0.00 0.00 0.00 0.00 0.01 0.01 0.00 0.00 0.00 0.00 0.00 0.00 0.00 0.00 0.00 0.00 0.01 0.01 0.01 0.03 0.04 0.05 0.04 0.03 0.02 0.02 0.03 0.04 0.05 0.05 0.06 0.07 0.07 0.07 0.08 0.08 0.08 0.05 0.03 0.03 0.03 0.04 0.04 0.06 0.06 0.06 0.07 0.07
0.00 0.00 0.00 0.00 0.00 0.01 0.04 0.02 0.01 0.00 0.01 0.01 0.00 0.00 0.00 0.01 0.01 0.01 0.02 0.02 0.02 0.03 0.03 0.03 0.02 0.02 0.02 0.03 0.03 0.03 0.04 0.06 0.07 0.08 0.08 0.07 0.07 0.08 0.07 0.05 0.03 0.03 0.03 0.02 0.02 0.03 0.05 0.06 0.06
0.00 0.00 0.00 0.00 0.01 0.01 0.03 0.03 0.02 0.02 0.02 0.01 0.00 0.00 0.00 0.01 0.01 0.01 0.02 0.02 0.02 0.02 0.02 0.02 0.03 0.04 0.04 0.03 0.03 0.04 0.05 0.07 0.06 0.05 0.04 0.05 0.04 0.04 0.03 0.03 0.04 0.04 0.04 0.03 0.03 0.02 0.04 0.05 0.05
0.00 0.00 0.00 0.00 0.00 0.01 0.01 0.01 0.02 0.02 0.02 0.02 0.01 0.01 0.01 0.02 0.01 0.01 0.01 0.02 0.02 0.02 0.03 0.04 0.04 0.05 0.06 0.08 0.06 0.05 0.04 0.04 0.03 0.03 0.03 0.03 0.03 0.02 0.02 0.03 0.03 0.03 0.03 0.03 0.03 0.03 0.03 0.05 0.05
0.00 0.00 0.00 0.00 0.00 0.00 0.00 0.00 0.01 0.01 0.01 0.02 0.02 0.02 0.02 0.02 0.02 0.02 0.02 0.02 0.01 0.02 0.03 0.04 0.04 0.05 0.05 0.05 0.05 0.06 0.05 0.05 0.04 0.03 0.03 0.03 0.03 0.02 0.02 0.02 0.01 0.01 0.02 0.02 0.03 0.03 0.04 0.06 0.04
MSLP
1010.10 1010.93 1011.79 1012.51 1012.97 1013.12 1012.95 1012.54 1012.02 1011.55 1011.24 1011.18 1011.38 1011.78 1012.28 1012.72 1013.00 1013.03 1012.80 1012.35 1011.78 1011.21 1010.76 1010.50 1010.46 1010.63 1010.94 1011.30 1011.65 1011.93 1012.12 1012.25 1012.36 1012.49 1012.70 1012.98 1013.33 1013.72 1014.09 1014.40 1014.64 1014.81 1014.92 1015.01 1015.11 1015.26 1015.45 1015.68 1015.91
1010.39 1011.33 1012.22 1012.90 1013.25 1013.23 1012.88 1012.29 1011.62 1011.03 1010.65 1010.57 1010.78 1011.22 1011.75 1012.25 1012.58 1012.68 1012.52 1012.15 1011.68 1011.22 1010.87 1010.70 1010.74 1010.96 1011.30 1011.68 1012.03 1012.31 1012.52 1012.66 1012.79 1012.94 1013.15 1013.42 1013.73 1014.05 1014.35 1014.60 1014.78 1014.91 1015.00 1015.10 1015.22 1015.38 1015.58 1015.81 1016.04
1010.83 1011.82 1012.68 1013.26 1013.46 1013.27 1012.74 1012.00 1011.22 1010.56 1010.16 1010.08 1010.31 1010.76 1011.32 1011.84 1012.21 1012.34 1012.25 1011.98 1011.61 1011.27 1011.03 1010.96 1011.08 1011.34 1011.69 1012.07 1012.42 1012.70 1012.90 1013.06 1013.20 1013.36 1013.56 1013.80 1014.07 1014.33 1014.56 1014.75 1014.88 1014.98 1015.07 1015.18 1015.32 1015.51 1015.73 1015.96 1016.19
1011.37 1012.34 1013.10 1013.53 1013.55 1013.19 1012.52 1011.68 1010.85 1010.19 1009.81 1009.76 1010.02 1010.49 1011.05 1011.57 1011.95 1012.11 1012.07 1011.88 1011.63 1011.40 1011.28 1011.30 1011.48 1011.77 1012.13 1012.49 1012.80 1013.06 1013.25 1013.41 1013.55 1013.72 1013.91 1014.13 1014.36 1014.57 1014.74 1014.88 1014.97 1015.06 1015.16 1015.29 1015.47 1015.69 1015.93 1016.17 1016.38
1011.92 1012.79 1013.39 1013.63 1013.47 1012.96 1012.19 1011.32 1010.51 1009.91 1009.62 1009.64 1009.94 1010.43 1010.99 1011.48 1011.84 1012.01 1012.01 1011.90 1011.74 1011.63 1011.62 1011.73 1011.96 1012.26 1012.59 1012.91 1013.17 1013.38 1013.55 1013.69 1013.84 1014.00 1014.20 1014.40 1014.60 1014.78 1014.91 1015.01 1015.09 1015.18 1015.29 1015.46 1015.67 1015.92 1016.18 1016.42 1016.62
1012.38 1013.09 1013.48 1013.51 1013.18 1012.55 1011.74 1010.91 1010.19 1009.72 1009.56 1009.69 1010.06 1010.56 1011.10 1011.56 1011.88 1012.04 1012.07 1012.02 1011.96 1011.95 1012.04 1012.21 1012.47 1012.76 1013.05 1013.30 1013.50 1013.65 1013.77 1013.90 1014.04 1014.22 1014.42 1014.63 1014.82 1014.97 1015.09 1015.17 1015.24 1015.33 1015.47 1015.66 1015.90 1016.17 1016.44 1016.67 1016.85
1012.67 1013.17 1013.33 1013.15 1012.66 1011.95 1011.16 1010.42 1009.87 1009.58 1009.59 1009.85 1010.29 1010.82 1011.33 1011.74 1012.02 1012.16 1012.20 1012.21 1012.23 1012.31 1012.47 1012.70 1012.97 1013.24 1013.47 1013.64 1013.77 1013.86 1013.94 1014.05 1014.20 1014.39 1014.61 1014.83 1015.02 1015.17 1015.27 1015.34 1015.41 1015.50 1015.64 1015.84 1016.10 1016.38 1016.65 1016.87 1017.03
1012.74 1013.01 1012.94 1012.56 1011.94 1011.20 1010.48 1009.88 1009.52 1009.44 1009.63 1010.03 1010.55 1011.09 1011.57 1011.93 1012.16 1012.28 1012.34 1012.39 1012.48 1012.64 1012.87 1013.13 1013.40 1013.64 1013.81 1013.92 1013.97 1014.01 1014.06 1014.16 1014.32 1014.54 1014.78 1015.02 1015.22 1015.37 1015.46 1015.51 1015.56 1015.64 1015.78 1015.97 1016.22 1016.49 1016.75 1016.96 1017.09
1012.61 1012.65 1012.36 1011.82 1011.11 1010.38 1009.74 1009.31 1009.15 1009.28 1009.64 1010.16 1010.74 1011.28 1011.73 1012.05 1012.24 1012.34 1012.41 1012.50 1012.66 1012.88 1013.16 1013.46 1013.73 1013.94 1014.06 1014.12 1014.12 1014.12 1014.16 1014.26 1014.44 1014.68 1014.95 1015.21 1015.41 1015.56 1015.63 1015.66 1015.69 1015.74 1015.85 1016.03 1016.25 1016.50 1016.73 1016.91 1017.03
1012.30 1012.15 1011.69 1011.02 1010.27 1009.56 1009.03 1008.76 1008.78 1009.07 1009.57 1010.18 1010.80 1011.34 1011.75 1012.03 1012.19 1012.28 1012.37 1012.50 1012.71 1012.99 1013.32 1013.64 1013.92 1014.11 1014.21 1014.23 1014.22 1014.20 1014.24 1014.36 1014.56 1014.82 1015.11 1015.38 1015.59 1015.72 1015.78 1015.78 1015.78 1015.79 1015.87 1016.00 1016.19 1016.40 1016.60 1016.76 1016.85
1011.92 1011.62 1011.03 1010.28 1009.51 1008.86 1008.43 1008.28 1008.44 1008.85 1009.43 1010.09 1010.71 1011.23 1011.61 1011.85 1011.99 1012.09 1012.20 1012.38 1012.64 1012.97 1013.34 1013.68 1013.97 1014.16 1014.26 1014.28 1014.27 1014.26 1014.32 1014.46 1014.68 1014.96 1015.25 1015.52 1015.72 1015.84 1015.88 1015.86 1015.83 1015.81 1015.84 1015.94 1016.08 1016.26 1016.42 1016.55 1016.63
1011.54 1011.14 1010.48 1009.71 1008.95 1008.36 1008.00 1007.95 1008.18 1008.64 1009.25 1009.89 1010.49 1010.97 1011.32 1011.54 1011.68 1011.79 1011.94 1012.16 1012.47 1012.83 1013.22 1013.59 1013.89 1014.10 1014.22 1014.26 1014.27 1014.30 1014.38 1014.54 1014.77 1015.06 1015.35 1015.60 1015.79 1015.90 1015.92 1015.89 1015.84 1015.81 1015.81 1015.88 1015.99 1016.12 1016.26 1016.36 1016.40
1011.25 1010.80 1010.12 1009.36 1008.65 1008.11 1007.81 1007.80 1008.04 1008.50 1009.06 1009.65 1010.19 1010.62 1010.93 1011.14 1011.29 1011.44 1011.62 1011.88 1012.21 1012.60 1013.00 1013.39 1013.70 1013.94 1014.09 1014.17 1014.23 1014.30 1014.41 1014.59 1014.82 1015.09 1015.36 1015.59 1015.77 1015.87 1015.89 1015.87 1015.83 1015.80 1015.80 1015.85 1015.94 1016.05 1016.15 1016.22 1016.24
1011.09 1010.64 1009.99 1009.28 1008.64 1008.15 1007.88 1007.86 1008.07 1008.45 1008.92 1009.42 1009.86 1010.23 1010.52 1010.73 1010.90 1011.08 1011.30 1011.58 1011.92 1012.31 1012.71 1013.09 1013.42 1013.68 1013.88 1014.02 1014.14 1014.25 1014.39 1014.57 1014.79 1015.02 1015.26 1015.46 1015.62 1015.72 1015.77 1015.78 1015.78 1015.79 1015.81 1015.87 1015.95 1016.04 1016.11 1016.15 1016.15
1011.07 1010.65 1010.08 1009.45 1008.88 1008.45 1008.20 1008.14 1008.27 1008.53 1008.87 1009.23 1009.58 1009.88 1010.13 1010.34 1010.53 1010.74 1010.98 1011.27 1011.60 1011.97 1012.35 1012.72 1013.06 1013.36 1013.60 1013.81 1013.98 1014.15 1014.31 1014.49 1014.67 1014.86 1015.04 1015.20 1015.34 1015.45 1015.54 1015.61 1015.67 1015.74 1015.81 1015.90 1015.99 1016.06 1016.12 1016.13 1016.09
1011.17 1010.82 1010.33 1009.82 1009.35 1008.97 1008.72 1008.61 1008.62 1008.73 1008.91 1009.12 1009.34 1009.56 1009.77 1009.98 1010.20 1010.43 1010.68 1010.96 1011.27 1011.60 1011.94 1012.29 1012.63 1012.96 1013.26 1013.53 1013.77 1013.98 1014.17 1014.33 1014.47 1014.60 1014.72 1014.84 1014.95 1015.07 1015.20 1015.33 1015.47 1015.61 1015.75 1015.87 1015.98 1016.05 1016.08 1016.07 1016.00
1011.35 1011.07 1010.71 1010.33 1009.96 1009.65 1009.40 1009.22 1009.10 1009.04 1009.03 1009.07 1009.15 1009.28 1009.44 1009.64 1009.86 1010.10 1010.35 1010.61 1010.88 1011.16 1011.47 1011.79 1012.14 1012.50 1012.86 1013.20 1013.51 1013.77 1013.98 1014.12 1014.21 1014.27 1014.32 1014.38 1014.47 1014.59 1014.75 1014.95 1015.16 1015.38 1015.57 1015.74 1015.86 1015.93 1015.94 1015.91 1015.82
1011.54 1011.37 1011.15 1010.92 1010.68 1010.44 1010.19 1009.93 1009.66 1009.41 1009.20 1009.04 1008.96 1008.98 1009.07 1009.24 1009.46 1009.70 1009.94 1010.18 1010.41 1010.65 1010.91 1011.22 1011.58 1011.98 1012.40 1012.83 1013.21 1013.52 1013.75 1013.88 1013.92 1013.92 1013.90 1013.90 1013.94 1014.06 1014.24 1014.48 1014.75 1015.01 1015.25 1015.44 1015.57 1015.63 1015.64 1015.59 1015.49
1011.70 1011.66 1011.61 1011.55 1011.45 1011.28 1011.03 1010.68 1010.26 1009.80 1009.35 1008.98 1008.72 1008.60 1008.61 1008.73 1008.93 1009.16 1009.39 1009.61 1009.81 1010.02 1010.26 1010.57 1010.95 1011.40 1011.90 1012.40 1012.86 1013.24 1013.49 1013.62 1013.63 1013.57 1013.48 1013.42 1013.42 1013.51 1013.70 1013.95 1014.25 1014.54 1014.79 1014.99 1015.11 1015.16 1015.15 1015.09 1015.00
1011.81 1011.93 1012.08 1012.20 1012.24 1012.15 1011.88 1011.44 1010.84 1010.16 1009.46 1008.85 1008.39 1008.10 1008.00 1008.06 1008.23 1008.45 1008.68 1008.89 1009.08 1009.28 1009.51 1009.83 1010.25 1010.76 1011.33 1011.92 1012.47 1012.91 1013.21 1013.34 1013.34 1013.24 1013.10 1012.98 1012.94 1013.00 1013.17 1013.42 1013.71 1013.99 1014.24 1014.41 1014.51 1014.53 1014.51 1014.45 1014.37
1011.86 1012.17 1012.53 1012.85 1013.04 1013.02 1012.73 1012.17 1011.39 1010.45 1009.49 1008.62 1007.92 1007.45 1007.22 1007.20 1007.33 1007.54 1007.78 1008.00 1008.21 1008.42 1008.68 1009.02 1009.48 1010.05 1010.71 1011.38 1012.01 1012.52 1012.87 1013.04 1013.04 1012.93 1012.76 1012.61 1012.54 1012.56 1012.70 1012.92 1013.18 1013.44 1013.65 1013.78 1013.84 1013.83 1013.78 1013.72 1013.66
1011.84 1012.38 1012.96 1013.48 1013.81 1013.85 1013.54 1012.85 1011.86 1010.67 1009.42 1008.27 1007.32 1006.65 1006.28 1006.17 1006.27 1006.48 1006.74 1007.00 1007.24 1007.49 1007.78 1008.17 1008.67 1009.30 1010.02 1010.76 1011.46 1012.04 1012.46 1012.67 1012.71 1012.62 1012.46 1012.31 1012.21 1012.22 1012.33 1012.51 1012.74 1012.94 1013.10 1013.18 1013.19 1013.14 1013.06 1012.99 1012.94
1011.79 1012.56 1013.37 1014.08 1014.55 1014.63 1014.26 1013.44 1012.24 1010.79 1009.26 1007.83 1006.64 1005.77 1005.26 1005.06 1005.12 1005.34 1005.64 1005.94 1006.23 1006.53 1006.87 1007.30 1007.84 1008.51 1009.27 1010.06 1010.82 1011.47 1011.95 1012.23 1012.33 1012.29 1012.17 1012.04 1011.97 1011.97 1012.06 1012.22 1012.40 1012.56 1012.66 1012.69 1012.64 1012.54 1012.42 1012.32 1012.26
1011.71 1012.71 1013.74 1014.62 1015.18 1015.29 1014.86 1013.91 1012.51 1010.81 1009.03 1007.34 1005.92 1004.87 1004.23 1003.96 1003.99 1004.22 1004.55 1004.91 1005.26 1005.62 1006.00 1006.46 1007.02 1007.71 1008.49 1009.31 1010.11 1010.81 1011.35 1011.71 1011.89 1011.93 1011.88 1011.82 1011.78 1011.81 1011.90 1012.04 1012.19 1012.31 1012.35 1012.32 1012.22 1012.06 1011.89 1011.75 1011.66
1011.61 1012.81 1014.02 1015.03 1015.66 1015.77 1015.28 1014.20 1012.63 1010.73 1008.73 1006.84 1005.24 1004.04 1003.28 1002.95 1002.96 1003.21 1003.58 1003.99 1004.40 1004.80 1005.21 1005.69 1006.26 1006.94 1007.71 1008.54 1009.36 1010.09 1010.70 1011.14 1011.42 1011.55 1011.60 1011.62 1011.65 1011.72 1011.83 1011.97 1012.10 1012.18 1012.18 1012.10 1011.93 1011.72 1011.49 1011.29 1011.13
1011.46 1012.83 1014.15 1015.24 1015.91 1016.00 1015.45 1014.27 1012.57 1010.53 1008.38 1006.35 1004.63 1003.33 1002.50 1002.13 1002.13 1002.39 1002.79 1003.24 1003.69 1004.12 1004.56 1005.03 1005.59 1006.25 1007.00 1007.81 1008.63 1009.40 1010.06 1010.58 1010.95 1011.20 1011.36 1011.47 1011.57 1011.70 1011.84 1011.98 1012.09 1012.15 1012.11 1011.98 1011.76 1011.48 1011.18 1010.89 1010.65
1011.25 1012.70 1014.08 1015.20 1015.85 1015.91 1015.30 1014.06 1012.29 1010.19 1007.98 1005.90 1004.12 1002.78 1001.93 1001.54 1001.54 1001.81 1002.23 1002.70 1003.17 1003.62 1004.06 1004.53 1005.06 1005.69 1006.41 1007.20 1008.02 1008.81 1009.51 1010.11 1010.57 1010.92 1011.18 1011.38 1011.56 1011.73 1011.90 1012.05 1012.15 1012.18 1012.10 1011.93 1011.65 1011.31 1010.92 1010.54 1010.19
1010.94 1012.39 1013.75 1014.82 1015.43 1015.43 1014.79 1013.53 1011.77 1009.69 1007.51 1005.47 1003.72 1002.41 1001.57 1001.19 1001.19 1001.46 1001.89 1002.37 1002.85 1003.30 1003.74 1004.19 1004.71 1005.31 1006.00 1006.77 1007.59 1008.39 1009.14 1009.79 1010.34 1010.77 1011.12 1011.39 1011.63 1011.84 1012.02 1012.16 1012.24 1012.23 1012.12 1011.90 1011.57 1011.16 1010.69 1010.21 1009.74
1010.48 1011.85 1013.12 1014.08 1014.60 1014.55 1013.89 1012.66 1010.98 1009.00 1006.96 1005.03 1003.40 1002.18 1001.40 1001.05 1001.06 1001.34 1001.75 1002.23 1002.70 1003.15 1003.59 1004.04 1004.54 1005.13 1005.81 1006.57 1007.39 1008.21 1008.99 1009.69 1010.30 1010.79 1011.20 1011.52 1011.79 1012.00 1012.18 1012.30 1012.34 1012.30 1012.15 1011.87 1011.49 1011.01 1010.46 1009.87 1009.28
1009.87 1011.08 1012.17 1012.99 1013.38 1013.27 1012.63 1011.48 1009.93 1008.14 1006.29 1004.57 1003.12 1002.03 1001.35 1001.06 1001.09 1001.36 1001.77 1002.23 1002.69 1003.14 1003.58 1004.04 1004.55 1005.14 1005.83 1006.60 1007.43 1008.26 1009.07 1009.81 1010.45 1010.98 1011.41 1011.75 1012.02 1012.23 1012.37 1012.45 1012.46 1012.36 1012.16 1011.84 1011.41 1010.87 1010.24 1009.56 1008.85
Thickness
5804 5803 5800 5790 5773 5758 5756 5768 5779 5782 5786 5794 5797 5793 5785 5779 5773 5769 5791 5801 5802 5801 5799 5798 5796 5794 5793 5791 5790 5788 5787 5786 5785 5783 5782 5781 5780 5779 5778 5777 5777 5776 5775 5774 5773 5773 5772 5770 5769
5806 5803 5794 5781 5761 5748 5756 5775 5780 5785 5793 5799 5798 5794 5787 5784 5790 5790 5794 5800 5802 5800 5799 5797 5795 5793 5791 5790 5789 5788 5786 5785 5784 5782 5781 5780 5779 5778 5777 5776 5776 5775 5774 5774 5773 5772 5771 5769 5768
5807 5804 5787 5772 5759 5752 5763 5781 5786 5795 5801 5800 5794 5794 5789 5786 5792 5794 5799 5802 5801 5800 5799 5797 5794 5792 5790 5788 5787 5786 5785 5784 5783 5782 5780 5779 5778 5777 5776 5775 5775 5774 5773 5773 5772 5771 5769 5768 5767
5805 5794 5784 5767 5760 5770 5778 5787 5794 5794 5799 5801 5795 5787 5792 5799 5799 5801 5803 5802 5800 5798 5797 5796 5793 5791 5789 5787 5786 5785 5784 5783 5782 5781 5780 5779 5778 5776 5776 5775 5774 5773 5772 5772 5771 5769 5768 5767 5766
5802 5786 5770 5760 5766 5781 5792 5797 5798 5793 5793 5795 5793 5784 5787 5800 5805 5805 5803 5801 5798 5797 5796 5794 5793 5790 5788 5786 5784 5783 5783 5782 5781 5780 5780 5778 5777 5776 5775 5774 5773 5772 5771 5770 5769 5768 5767 5766 5765
5790 5780 5761 5756 5769 5787 5796 5802 5800 5795 5795 5797 5793 5785 5787 5800 5802 5802 5802 5800 5798 5796 5794 5793 5791 5789 5787 5785 5783 5782 5782 5781 5780 5779 5779 5778 5777 5776 5775 5773 5772 5771 5770 5769 5768 5767 5766 5765 5764
5785 5774 5763 5765 5770 5782 5796 5805 5800 5796 5794 5796 5798 5785 5788 5796 5801 5803 5801 5799 5797 5795 5793 5791 5790 5788 5786 5784 5782 5781 5781 5780 5779 5778 5777 5777 5776 5775 5774 5773 5772 5770 5769 5768 5767 5766 5765 5764 5763
5794 5777 5768 5768 5773 5782 5800 5805 5805 5801 5798 5807 5804 5787 5785 5796 5802 5801 5798 5796 5794 5793 5791 5789 5788 5787 5785 5783 5782 5781 5780 5779 5778 5777 5776 5775 5775 5774 5773 5772 5771 5770 5768 5768 5767 5765 5764 5763 5762
5799 5772 5762 5773 5779 5788 5802 5801 5805 5810 5804 5804 5804 5800 5800 5803 5801 5796 5792 5790 5789 5789 5789 5788 5786 5785 5784 5782 5781 5780 5779 5778 5777 5776 5775 5774 5774 5773 5772 5771 5770 5769 5768 5767 5766 5765 5764 5762 5761
5789 5767 5776 5792 5797 5798 5801 5801 5802 5800 5795 5795 5797 5801 5803 5801 5796 5791 5788 5786 5785 5786 5787 5787 5786 5784 5782 5781 5780 5779 5778 5777 5776 5775 5774 5774 5773 5772 5771 5770 5769 5768 5767 5766 5765 5764 5763 5762 5761
5790 5781 5793 5802 5807 5806 5801 5802 5806 5796 5787 5793 5794 5796 5797 5796 5793 5790 5788 5787 5787 5787 5786 5787 5785 5784 5782 5780 5779 5778 5777 5776 5775 5774 5774 5772 5771 5770 5769 5768 5768 5767 5766 5765 5764 5763 5762 5761 5760
5794 5797 5803 5806 5811 5807 5803 5803 5801 5799 5799 5807 5806 5802 5797 5793 5791 5790 5789 5788 5788 5787 5787 5786 5785 5784 5782 5780 5779 5777 5776 5775 5774 5774 5773 5772 5770 5769 5768 5767 5766 5766 5765 5764 5763 5762 5761 5760 5759
5797 5801 5808 5811 5812 5808 5806 5802 5801 5801 5809 5810 5806 5801 5796 5794 5793 5793 5793 5791 5789 5787 5787 5786 5785 5784 5782 5780 5779 5778 5776 5775 5774 5773 5772 5771 5770 5768 5767 5766 5765 5765 5764 5762 5762 5760 5760 5759 5758
5804 5805 5806 5809 5809 5810 5803 5801 5801 5801 5808 5805 5801 5798 5797 5796 5794 5792 5791 5790 5790 5789 5788 5787 5786 5785 5783 5781 5779 5778 5777 5775 5774 5773 5772 5771 5769 5767 5766 5765 5764 5764 5763 5762 5760 5759 5758 5758 5757
5808 5800 5801 5806 5808 5807 5804 5791 5796 5804 5805 5800 5798 5798 5798 5797 5795 5794 5793 5793 5792 5791 5790 5788 5787 5786 5784 5782 5780 5779 5777 5775 5774 5773 5772 5770 5769 5767 5765 5764 5763 5763 5762 5761 5760 5758 5757 5756 5755
5800 5788 5780 5798 5805 5806 5795 5776 5796 5804 5801 5795 5796 5797 5796 5796 5796 5796 5796 5795 5794 5792 5790 5789 5789 5786 5784 5783 5781 5779 5777 5775 5774 5773 5772 5771 5769 5767 5765 5764 5763 5762 5761 5760 5758 5757 5755 5754 5753
5780 5770 5774 5788 5803 5801 5791 5779 5796 5803 5799 5794 5795 5795 5794 5794 5795 5797 5797 5796 5795 5793 5791 5789 5788 5786 5784 5782 5780 5778 5777 5775 5774 5773 5772 5771 5769 5768 5765 5764 5762 5761 5760 5758 5757 5756 5754 5752 5751
5769 5771 5774 5779 5795 5794 5784 5782 5793 5800 5799 5795 5795 5795 5793 5793 5795 5798 5798 5797 5795 5793 5791 5789 5787 5785 5783 5780 5777 5776 5774 5774 5773 5772 5772 5771 5769 5767 5765 5763 5762 5760 5759 5757 5755 5753 5752 5751 5749
5785 5778 5774 5783 5797 5789 5781 5781 5789 5796 5796 5794 5794 5793 5793 5795 5799 5799 5798 5797 5795 5792 5789 5787 5785 5784 5781 5777 5774 5772 5771 5772 5772 5772 5771 5770 5769 5767 5765 5763 5761 5759 5757 5756 5754 5752 5750 5748 5747
5784 5775 5775 5785 5796 5788 5779 5780 5790 5795 5795 5797 5796 5795 5796 5796 5796 5797 5797 5795 5793 5791 5789 5787 5786 5784 5782 5779 5776 5774 5773 5772 5771 5771 5770 5769 5768 5767 5765 5762 5760 5759 5756 5754 5753 5751 5747 5746 5745
5782 5777 5778 5777 5784 5785 5778 5772 5782 5792 5797 5799 5799 5799 5798 5797 5795 5795 5795 5794 5793 5790 5789 5789 5786 5785 5782 5780 5776 5773 5771 5770 5768 5767 5767 5768 5767 5766 5764 5762 5760 5758 5756 5753 5752 5750 5747 5744 5743
5776 5793 5790 5782 5768 5758 5768 5748 5772 5781 5786 5792 5795 5797 5798 5800 5799 5796 5795 5793 5792 5791 5791 5788 5786 5783 5781 5779 5775 5771 5767 5764 5765 5765 5765 5765 5765 5764 5762 5761 5759 5757 5755 5753 5752 5751 5748 5744 5741
5789 5799 5791 5781 5766 5754 5758 5748 5759 5775 5776 5786 5794 5797 5800 5801 5801 5799 5798 5796 5795 5793 5790 5788 5785 5782 5780 5777 5774 5770 5766 5764 5764 5763 5762 5762 5762 5761 5760 5759 5758 5756 5754 5753 5751 5749 5747 5743 5740
5799 5788 5776 5762 5752 5738 5752 5745 5751 5766 5778 5787 5795 5798 5800 5801 5802 5801 5800 5797 5794 5793 5790 5786 5782 5779 5778 5775 5772 5769 5765 5762 5760 5759 5758 5758 5758 5758 5758 5757 5756 5754 5753 5751 5749 5747 5745 5742 5740
5787 5762 5739 5735 5725 5731 5752 5747 5754 5781 5790 5793 5795 5797 5800 5801 5800 5798 5796 5794 5793 5791 5788 5784 5780 5777 5775 5773 5770 5767 5765 5762 5758 5757 5756 5755 5755 5754 5754 5755 5754 5752 5751 5750 5748 5745 5743 5740 5738
5777 5764 5736 5724 5721 5730 5745 5743 5765 5790 5797 5799 5799 5798 5798 5799 5798 5797 5797 5795 5793 5790 5786 5783 5778 5775 5773 5770 5767 5765 5762 5760 5758 5757 5755 5754 5753 5753 5752 5752 5751 5750 5749 5748 5745 5743 5741 5739 5737
5772 5761 5763 5738 5732 5726 5734 5750 5772 5790 5792 5794 5795 5795 5794 5796 5797 5796 5796 5794 5792 5789 5786 5783 5778 5774 5771 5768 5765 5763 5761 5759 5757 5756 5754 5753 5752 5751 5750 5750 5748 5747 5746 5744 5742 5740 5738 5737 5735
5783 5767 5746 5731 5718 5716 5730 5740 5751 5773 5780 5786 5788 5790 5792 5793 5794 5794 5793 5792 5790 5787 5784 5780 5776 5772 5769 5766 5763 5762 5760 5758 5756 5754 5752 5751 5749 5748 5747 5746 5745 5743 5742 5741 5739 5737 5735 5733 5732
5769 5760 5745 5731 5729 5716 5713 5735 5775 5778 5784 5784 5787 5790 5791 5791 5791 5791 5791 5790 5788 5785 5781 5777 5773 5769 5766 5764 5762 5759 5757 5755 5753 5751 5749 5747 5746 5744 5743 5742 5741 5740 5738 5737 5735 5733 5732 5730 5728
5778 5766 5749 5737 5727 5721 5718 5739 5787 5785 5786 5786 5786 5788 5789 5789 5789 5788 5787 5785 5782 5779 5777 5773 5770 5767 5765 5762 5759 5756 5754 5752 5749 5746 5745 5743 5741 5741 5740 5738 5737 5736 5734 5733 5731 5729 5728 5726 5724